Quillayute, WA

4:41 PM PDT on April 28, 2017 (GMT -0700)
Quillayute

Weather History for KUIL - October, 2012

Change the Weather History Date:

Tuesday, October 30, 2012

  Actual Average Record
Temperature  
Mean Temperature 55 °F 47 °F  
Max Temperature 56 °F 54 °F 64 °F (1970)
Min Temperature 53 °F 40 °F 24 °F (1972)
Degree Days  
Heating Degree Days 10 18  
Month to date heating degree days 448  
Since 1 July heating degree days 1073  
Cooling Degree Days 0 0  
Month to date cooling degree days 0  
Year to date cooling degree days 19  
Growing Degree Days 4 (Base 50)    
Moisture  
Dew Point 53 °F    
Average Humidity 93    
Maximum Humidity 100    
Minimum Humidity 86    
Precipitation  
Precipitation 2.75 in 0.45 in 3.64 in (1999)
Month to date precipitation 10.04  
Year to date precipitation 70.58  
Sea Level Pressure  
Sea Level Pressure 29.76 in    
Wind  
Wind Speed 7 mph (ESE)    
Max Wind Speed 17 mph    
Max Gust Speed 31 mph    
Visibility 3 miles    
Events Fog , Rain    
T = Trace of Precipitation, MM = Missing Value Source: NWS Daily Summary

Daily Weather History Graph

Daily Weather History Graph

Search for Another Location

Airport or City:

Trip Planner

Search our weather history database for the weather conditions in past years. The results will help you decide how hot, cold, wet, or windy it might be!

Date:

Astronomy

Oct. 30, 2012 Rise Set
Actual Time 8:00 AM PDT 6:02 PM PDT
Civil Twilight 7:28 AM PDT 6:34 PM PDT
Nautical Twilight 6:51 AM PDT 7:10 PM PDT
Astronomical Twilight 6:15 AM PDT 7:46 PM PDT
Moon 6:28 PM PDT (10/30) 8:59 AM PDT (10/30)
Length of Visible Light 11h 05m
Length of Day
10h 01m
Full, 99% of the Moon is Illuminated
Oct 30
Full
Nov 6
Last Quarter
Nov 13
New
Nov 20
First Quarter
Nov 28
Full

Hourly Weather History & Observations

Time (PDT) Temp. Dew Point Humidity Pressure Visibility Wind Dir Wind Speed Gust Speed Precip Events Conditions
12:53 AM 54.0 °F 52.0 °F 93% 29.91 in 4.0 mi South 9.2 mph - 0.11 in Rain Rain
1:07 AM 53.6 °F 51.8 °F 94% 29.91 in 3.0 mi South 9.2 mph - 0.03 in Rain Rain
1:20 AM 53.6 °F 51.8 °F 94% 29.90 in 2.5 mi South 6.9 mph - 0.07 in Rain Rain
1:29 AM 53.6 °F 51.8 °F 94% 29.90 in 3.0 mi South 4.6 mph - 0.10 in Rain Rain
1:53 AM 54.0 °F 52.0 °F 93% 29.90 in 4.0 mi SSE 4.6 mph - 0.13 in Rain Light Rain
2:03 AM 53.6 °F 51.8 °F 94% 29.89 in 4.0 mi Variable 3.5 mph - 0.01 in Rain Light Rain
2:16 AM 53.6 °F 51.8 °F 94% 29.88 in 2.5 mi Calm Calm - 0.04 in Rain Heavy Rain
2:27 AM 53.6 °F 51.8 °F 94% 29.89 in 4.0 mi Calm Calm - N/A Rain Light Rain
2:35 AM 53.6 °F 51.8 °F 94% 29.89 in 2.5 mi Calm Calm - 0.08 in Rain Rain
2:53 AM 54.0 °F 52.0 °F 93% 29.89 in 2.5 mi Calm Calm - 0.13 in Rain Rain
3:34 AM 53.6 °F 51.8 °F 94% 29.88 in 4.0 mi Calm Calm - 0.07 in Rain Light Rain
3:53 AM 54.0 °F 51.1 °F 90% 29.86 in 5.0 mi East 3.5 mph - 0.08 in Rain Light Rain
4:11 AM 53.6 °F 51.8 °F 94% 29.85 in 5.0 mi East 4.6 mph - N/A Rain Light Rain
4:18 AM 53.6 °F 51.8 °F 94% 29.85 in 6.0 mi East 4.6 mph - N/A Rain Light Rain
4:53 AM 53.1 °F 51.1 °F 93% 29.84 in 5.0 mi Calm Calm - 0.02 in Rain Light Rain
5:48 AM 53.6 °F 51.8 °F 94% 29.83 in 6.0 mi NE 3.5 mph - 0.02 in Rain Light Rain
5:53 AM 53.1 °F 51.1 °F 93% 29.83 in 7.0 mi NE 3.5 mph - 0.02 in Rain Light Rain
6:53 AM 53.1 °F 51.1 °F 93% 29.81 in 9.0 mi East 3.5 mph - 0.01 in   Overcast
7:15 AM 53.6 °F 51.8 °F 94% 29.81 in 9.0 mi Calm Calm - N/A   Overcast
7:38 AM 53.6 °F 51.8 °F 94% 29.81 in 8.0 mi Calm Calm - N/A   Overcast
7:53 AM 53.1 °F 51.1 °F 93% 29.82 in 8.0 mi East 3.5 mph - N/A   Overcast
8:51 AM 53.6 °F 51.8 °F 94% 29.82 in 1.8 mi ENE 4.6 mph - N/A   Overcast
8:53 AM 53.1 °F 51.1 °F 93% 29.82 in 1.2 mi ENE 4.6 mph - N/A   Overcast
9:02 AM 53.6 °F 51.8 °F 94% 29.81 in 1.0 mi ENE 5.8 mph - 0.00 in Rain Light Rain
9:18 AM 53.6 °F 51.8 °F 94% 29.81 in 0.8 mi East 5.8 mph - 0.00 in Rain Light Rain
9:27 AM 53.6 °F 51.8 °F 94% 29.81 in 0.8 mi ENE 5.8 mph - 0.01 in Rain Light Rain
9:44 AM 53.6 °F 51.8 °F 94% 29.82 in 1.0 mi East 5.8 mph - 0.01 in   Overcast
9:53 AM 53.1 °F 51.1 °F 93% 29.82 in 0.8 mi ENE 5.8 mph - 0.01 in   Overcast
10:53 AM 54.0 °F 52.0 °F 93% 29.80 in 0.8 mi East 5.8 mph - 0.03 in Rain Light Rain
11:02 AM 53.6 °F 51.8 °F 94% 29.80 in 1.0 mi East 4.6 mph - 0.00 in Rain Light Rain
11:21 AM 53.6 °F 51.8 °F 94% 29.80 in 0.8 mi East 5.8 mph - 0.01 in Rain Light Rain
11:39 AM 55.4 °F 53.6 °F 94% 29.79 in 1.0 mi East 4.6 mph - 0.02 in Rain Light Rain
11:46 AM 55.4 °F 53.6 °F 94% 29.79 in 0.8 mi East 5.8 mph - 0.02 in Rain Light Rain
11:53 AM 55.0 °F 53.1 °F 93% 29.80 in 1.0 mi East 4.6 mph - 0.03 in Rain Light Rain
12:09 PM 55.4 °F 53.6 °F 94% 29.79 in 2.0 mi East 4.6 mph - 0.01 in Rain Light Rain
12:49 PM 55.4 °F 53.6 °F 94% 29.78 in 2.5 mi ENE 4.6 mph - 0.08 in Rain Rain
12:53 PM 55.9 °F 54.0 °F 93% 29.78 in 3.0 mi ENE 5.8 mph - 0.09 in Rain Rain
1:07 PM 55.4 °F 53.6 °F 94% 29.77 in 2.5 mi ENE 4.6 mph - 0.03 in Rain Rain
1:13 PM 55.4 °F 53.6 °F 94% 29.76 in 3.0 mi East 5.8 mph - 0.04 in Rain Rain
1:40 PM 55.4 °F 53.6 °F 94% 29.75 in 4.0 mi East 6.9 mph - 0.05 in Rain Light Rain
1:53 PM 55.9 °F 53.1 °F 90% 29.74 in 2.5 mi ENE 9.2 mph - 0.06 in Rain Light Rain
2:00 PM 55.4 °F 53.6 °F 94% 29.73 in 3.0 mi ENE 6.9 mph - 0.00 in Rain Light Rain
2:35 PM 55.4 °F 53.6 °F 94% 29.74 in 2.0 mi ESE 3.5 mph - 0.04 in Rain Rain
2:43 PM 55.4 °F 53.6 °F 94% 29.73 in 1.8 mi East 4.6 mph - 0.06 in Rain Rain
2:53 PM 55.0 °F 53.1 °F 93% 29.73 in 1.5 mi ENE 5.8 mph - 0.09 in Rain Rain
3:01 PM 55.4 °F 53.6 °F 94% 29.72 in 2.0 mi ENE 5.8 mph - 0.02 in Rain Rain
3:09 PM 55.4 °F 53.6 °F 94% 29.72 in 1.2 mi NE 5.8 mph - 0.05 in Rain Heavy Rain
3:19 PM 55.4 °F 53.6 °F 94% 29.72 in 1.0 mi Calm Calm - 0.10 in Rain Heavy Rain
3:27 PM 55.4 °F 53.6 °F 94% 29.72 in 0.8 mi ENE 3.5 mph - 0.14 in Rain Heavy Rain
3:48 PM 55.4 °F 51.8 °F 88% 29.71 in 0.5 mi NE 5.8 mph - 0.35 in Fog , Rain Heavy Rain
3:53 PM 54.0 °F 52.0 °F 93% 29.71 in 0.8 mi East 5.8 mph - 0.39 in Rain Heavy Rain
4:02 PM 53.6 °F 51.8 °F 94% 29.70 in 0.5 mi ENE 4.6 mph - 0.09 in Fog , Rain Heavy Rain
4:06 PM 53.6 °F 51.8 °F 94% 29.70 in 0.5 mi ENE 4.6 mph - 0.13 in Fog , Rain Heavy Rain
4:23 PM 53.6 °F 51.8 °F 94% 29.70 in 0.5 mi ENE 6.9 mph - 0.33 in Fog , Rain Heavy Rain
4:37 PM 53.6 °F 51.8 °F 94% 29.69 in 0.5 mi ENE 6.9 mph - 0.48 in Fog , Rain Heavy Rain
4:53 PM 53.6 °F 53.6 °F 100% 29.69 in 0.5 mi SE 3.5 mph - N/A Fog , Rain Heavy Rain
5:24 PM 55.4 °F 53.6 °F 94% 29.68 in 1.2 mi South 11.5 mph 26.5 mph 0.20 in Rain Rain
5:35 PM 55.4 °F 53.6 °F 94% 29.68 in 1.5 mi South 10.4 mph 25.3 mph 0.21 in Rain Light Rain
5:43 PM 55.4 °F 53.6 °F 94% 29.68 in 1.2 mi South 16.1 mph 27.6 mph 0.22 in Rain Light Rain
5:50 PM 55.4 °F 53.6 °F 94% 29.67 in 1.8 mi South 12.7 mph 27.6 mph 0.24 in Rain Rain
5:53 PM 55.9 °F 54.0 °F 93% 29.68 in 1.8 mi South 13.8 mph 24.2 mph 0.25 in Rain Rain
6:01 PM 55.4 °F 53.6 °F 94% 29.67 in 2.5 mi South 13.8 mph 27.6 mph 0.01 in Rain Light Rain
6:08 PM 55.4 °F 53.6 °F 94% 29.67 in 3.0 mi South 12.7 mph 27.6 mph 0.01 in Rain Light Rain
6:27 PM 55.4 °F 53.6 °F 94% 29.66 in 2.0 mi South 13.8 mph 27.6 mph 0.03 in Rain Light Rain
6:39 PM 55.4 °F 53.6 °F 94% 29.66 in 1.2 mi South 16.1 mph 25.3 mph 0.05 in Rain Heavy Rain
6:53 PM 55.9 °F 54.0 °F 93% 29.67 in 2.0 mi South 13.8 mph 29.9 mph 0.16 in Rain Light Rain
7:06 PM 55.4 °F 53.6 °F 94% 29.67 in 3.0 mi South 10.4 mph 23.0 mph 0.01 in Rain Light Rain
7:21 PM 55.4 °F 53.6 °F 94% 29.67 in 2.5 mi South 12.7 mph 24.2 mph 0.03 in Rain Light Rain
7:31 PM 55.4 °F 53.6 °F 94% 29.67 in 1.8 mi South 17.3 mph 31.1 mph 0.04 in Rain Light Rain
7:36 PM 55.4 °F 53.6 °F 94% 29.67 in 3.0 mi South 15.0 mph 31.1 mph N/A Rain Light Rain
7:45 PM 55.4 °F 53.6 °F 94% 29.67 in 2.0 mi South 17.3 mph 25.3 mph 0.05 in Rain Light Rain
7:53 PM 55.9 °F 54.0 °F 93% 29.68 in 2.5 mi South 12.7 mph 25.3 mph 0.05 in Rain Light Rain
8:13 PM 55.4 °F 53.6 °F 94% 29.68 in 2.5 mi South 13.8 mph 25.3 mph 0.02 in Rain Light Rain
8:25 PM 55.4 °F 53.6 °F 94% 29.68 in 3.0 mi South 11.5 mph 23.0 mph 0.04 in Rain Light Rain
8:41 PM 55.4 °F 53.6 °F 94% 29.69 in 3.0 mi South 10.4 mph 23.0 mph 0.04 in Rain Light Rain
8:53 PM 55.9 °F 54.0 °F 93% 29.69 in 3.0 mi South 11.5 mph 24.2 mph 0.05 in Rain Light Rain
9:33 PM 55.4 °F 53.6 °F 94% 29.69 in 5.0 mi South 12.7 mph 28.8 mph 0.05 in Rain Light Rain
9:53 PM 55.9 °F 54.0 °F 93% 29.70 in 4.0 mi South 12.7 mph 20.7 mph 0.07 in Rain Rain
10:53 PM 55.9 °F 53.1 °F 90% 29.70 in 3.0 mi South 8.1 mph - 0.13 in Rain Rain
11:53 PM 55.9 °F 53.1 °F 90% 29.71 in 3.0 mi South 12.7 mph 21.9 mph 0.13 in Rain Rain